• In Belarus
  • List of Countries
  • For 7 days
  • Water Temperature
  • Satellite Maps
  • Weather Map
  • Weather Widgets
  • user-avatar
    Login

    Hourly Weather Cobija

    Today, 23 January, Tuesday

    Time Temperature Precipitation Wind Pressure Humidity
    00:00 +25°C° 0 mm 1 mps 736 mmHg 85%
    01:00 +25°C° 0 mm 1 mps 736 mmHg 85%
    02:00 +25°C° 0.6 mm 1 mps 736 mmHg 87%
    03:00 +24°C° 0.6 mm 1 mps 736 mmHg 90%
    04:00 +24°C° 0.6 mm 1 mps 736 mmHg 92%
    05:00 +24°C° 0.8 mm 1 mps 736 mmHg 93%
    06:00 +24°C° 0.8 mm 1 mps 737 mmHg 95%
    07:00 +25°C° 0 mm 1 mps 737 mmHg 95%
    08:00 +27°C° 1.5 mm 1 mps 737 mmHg 92%
    09:00 +28°C° 1.5 mm 1 mps 737 mmHg 89%
    10:00 +30°C° 1.5 mm 1 mps 738 mmHg 85%
    11:00 +30°C° 1.1 mm 1 mps 737 mmHg 84%
    12:00 +29°C° 1.1 mm 1 mps 736 mmHg 83%
    13:00 +29°C° 1.1 mm 1 mps 736 mmHg 81%
    14:00 +30°C° 0 mm 1 mps 735 mmHg 76%
    15:00 +30°C° 0 mm 1 mps 735 mmHg 71%
    16:00 +31°C° 0 mm 1 mps 734 mmHg 66%
    17:00 +29°C° 0 mm 1 mps 734 mmHg 72%
    18:00 +28°C° 0 mm 1 mps 734 mmHg 77%
    19:00 +27°C° 0 mm 1 mps 734 mmHg 83%
    20:00 +26°C° 0 mm 1 mps 735 mmHg 84%
    21:00 +26°C° 0 mm 1 mps 736 mmHg 84%
    22:00 +26°C° 0 mm 1 mps 736 mmHg 85%
    23:00 +26°C° 0 mm 1 mps 736 mmHg 86%

    Tomorrow, 24 January, Wednesday

    Time Temperature Precipitation Wind Pressure Humidity
    00:00 +25°C° 0 mm 1 mps 736 mmHg 86%
    01:00 +25°C° 0 mm 1 mps 736 mmHg 87%
    02:00 +25°C° 0 mm 1 mps 736 mmHg 87%
    03:00 +25°C° 0 mm 1 mps 736 mmHg 88%
    04:00 +24°C° 0 mm 1 mps 736 mmHg 88%
    05:00 +25°C° 0 mm 1 mps 736 mmHg 86%
    06:00 +26°C° 0 mm 1 mps 737 mmHg 84%
    07:00 +26°C° 0 mm 1 mps 737 mmHg 82%
    08:00 +28°C° 0.1 mm 1 mps 738 mmHg 74%
    09:00 +30°C° 0.1 mm 1 mps 738 mmHg 66%
    10:00 +33°C° 0.1 mm 1 mps 739 mmHg 59%
    11:00 +33°C° 1.4 mm 1 mps 738 mmHg 63%
    12:00 +33°C° 1.4 mm 1 mps 737 mmHg 67%
    13:00 +32°C° 1.4 mm 1 mps 736 mmHg 71%
    14:00 +32°C° 0.7 mm 1 mps 735 mmHg 69%
    15:00 +32°C° 0.7 mm 1 mps 735 mmHg 67%
    16:00 +32°C° 0.7 mm 1 mps 734 mmHg 66%
    17:00 +30°C° 0.1 mm 1 mps 734 mmHg 73%
    18:00 +29°C° 0.1 mm 1 mps 734 mmHg 80%
    19:00 +25°C° 0.1 mm 0 mps 734 mmHg 87%
    20:00 +25°C° 0 mm 0 mps 735 mmHg 87%
    21:00 +24°C° 0 mm 0 mps 735 mmHg 87%
    22:00 +24°C° 0 mm 0 mps 736 mmHg 87%
    23:00 +24°C° 0.4 mm 0 mps 736 mmHg 89%

    Day after tomorrow, 25 January, Thursday

    Time Temperature Precipitation Wind Pressure Humidity
    00:00 +23°C° 0.4 mm 0 mps 736 mmHg 90%
    01:00 +23°C° 0.4 mm 0 mps 736 mmHg 92%
    02:00 +23°C° 0.3 mm 0 mps 736 mmHg 93%
    03:00 +23°C° 0.3 mm 0 mps 735 mmHg 95%
    04:00 +23°C° 0.3 mm 0 mps 735 mmHg 96%
    05:00 +23°C° 1.3 mm 0 mps 736 mmHg 96%
    06:00 +23°C° 1.3 mm 0 mps 737 mmHg 97%
    07:00 +24°C° 1.3 mm 0 mps 737 mmHg 98%
    08:00 +25°C° 1.1 mm 0 mps 738 mmHg 95%
    09:00 +26°C° 1.1 mm 0 mps 738 mmHg 91%
    10:00 +30°C° 1.1 mm 1 mps 738 mmHg 88%
    11:00 +30°C° 1.4 mm 1 mps 738 mmHg 87%
    12:00 +30°C° 1.4 mm 1 mps 737 mmHg 85%
    13:00 +30°C° 1.4 mm 1 mps 736 mmHg 84%
    14:00 +30°C° 0.4 mm 1 mps 735 mmHg 81%
    15:00 +31°C° 0.4 mm 1 mps 735 mmHg 78%
    16:00 +31°C° 0.4 mm 1 mps 734 mmHg 75%
    17:00 +29°C° 0 mm 1 mps 734 mmHg 80%
    18:00 +28°C° 0 mm 1 mps 734 mmHg 85%
    19:00 +27°C° 0 mm 1 mps 735 mmHg 90%
    20:00 +26°C° 0 mm 1 mps 735 mmHg 91%
    21:00 +26°C° 0 mm 1 mps 736 mmHg 92%
    22:00 +26°C° 0 mm 1 mps 737 mmHg 93%
    23:00 +26°C° 0 mm 1 mps 736 mmHg 93%

    26 January, Friday

    Time Temperature Precipitation Wind Pressure Humidity
    00:00 +25°C° 0 mm 1 mps 736 mmHg 93%
    01:00 +25°C° 0 mm 1 mps 735 mmHg 94%
    02:00 +25°C° 0.1 mm 1 mps 735 mmHg 94%
    03:00 +25°C° 0.1 mm 1 mps 735 mmHg 95%
    04:00 +25°C° 0.1 mm 1 mps 735 mmHg 95%
    05:00 +25°C° 0 mm 1 mps 736 mmHg 93%
    06:00 +26°C° 0 mm 1 mps 737 mmHg 91%
    07:00 +26°C° 0 mm 1 mps 737 mmHg 88%
    08:00 +28°C° 0.1 mm 1 mps 737 mmHg 80%
    09:00 +30°C° 0.1 mm 1 mps 738 mmHg 71%
    10:00 +32°C° 0.1 mm 1 mps 738 mmHg 62%
    11:00 +31°C° 1.4 mm 1 mps 737 mmHg 71%
    12:00 +31°C° 1.4 mm 1 mps 736 mmHg 79%
    13:00 +30°C° 1.4 mm 1 mps 735 mmHg 88%
    14:00 +30°C° 0.9 mm 1 mps 735 mmHg 87%
    15:00 +30°C° 0.9 mm 1 mps 734 mmHg 87%
    16:00 +30°C° 0.9 mm 1 mps 733 mmHg 86%
    17:00 +29°C° 0.1 mm 1 mps 733 mmHg 90%
    18:00 +27°C° 0.1 mm 1 mps 734 mmHg 93%
    19:00 +26°C° 0.1 mm 1 mps 734 mmHg 97%
    20:00 +26°C° 0 mm 1 mps 734 mmHg 97%
    21:00 +26°C° 0 mm 1 mps 735 mmHg 97%
    22:00 +25°C° 0 mm 1 mps 735 mmHg 97%
    23:00 +25°C° 0 mm 1 mps 735 mmHg 97%

    27 January, Saturday

    Time Temperature Precipitation Wind Pressure Humidity
    00:00 +25°C° 0 mm 1 mps 735 mmHg 97%
    01:00 +24°C° 0 mm 1 mps 735 mmHg 97%
    02:00 +24°C° 0 mm 1 mps 734 mmHg 97%
    03:00 +24°C° 0 mm 1 mps 734 mmHg 97%
    04:00 +24°C° 0 mm 1 mps 734 mmHg 97%
    05:00 +25°C° 0 mm 1 mps 735 mmHg 96%
    06:00 +25°C° 0 mm 1 mps 735 mmHg 94%
    07:00 +26°C° 0 mm 1 mps 736 mmHg 92%
    08:00 +27°C° 1 mm 1 mps 736 mmHg 90%
    09:00 +29°C° 1 mm 1 mps 736 mmHg 87%
    10:00 +30°C° 1 mm 1 mps 736 mmHg 84%
    11:00 +30°C° 1.7 mm 1 mps 735 mmHg 84%
    12:00 +30°C° 1.7 mm 1 mps 734 mmHg 85%
    13:00 +30°C° 1.7 mm 1 mps 733 mmHg 85%
    14:00 +30°C° 0.8 mm 1 mps 733 mmHg 84%
    15:00 +30°C° 0.8 mm 1 mps 732 mmHg 82%
    16:00 +30°C° 0.8 mm 1 mps 731 mmHg 81%
    17:00 +29°C° 0.3 mm 1 mps 732 mmHg 86%
    18:00 +28°C° 0.3 mm 1 mps 732 mmHg 91%
    19:00 +26°C° 0.3 mm 1 mps 732 mmHg 97%
    20:00 +26°C° 0 mm 1 mps 733 mmHg 97%
    21:00 +26°C° 0 mm 1 mps 733 mmHg 97%
    22:00 +25°C° 0 mm 1 mps 734 mmHg 96%
    23:00 +25°C° 0 mm 1 mps 734 mmHg 96%

    28 January, Sunday

    Time Temperature Precipitation Wind Pressure Humidity
    00:00 +25°C° 0 mm 1 mps 734 mmHg 96%
    01:00 +25°C° 0 mm 1 mps 733 mmHg 96%
    02:00 +25°C° 0 mm 1 mps 733 mmHg 97%
    03:00 +24°C° 0 mm 1 mps 733 mmHg 97%
    04:00 +24°C° 0 mm 1 mps 733 mmHg 97%
    05:00 +25°C° 0 mm 1 mps 734 mmHg 95%
    06:00 +25°C° 0 mm 1 mps 735 mmHg 93%
    07:00 +26°C° 0 mm 1 mps 735 mmHg 91%
    08:00 +27°C° 0.2 mm 1 mps 736 mmHg 84%
    09:00 +29°C° 0.2 mm 2 mps 736 mmHg 78%
    10:00 +31°C° 0.2 mm 2 mps 736 mmHg 71%
    11:00 +31°C° 1.2 mm 2 mps 735 mmHg 75%
    12:00 +31°C° 1.2 mm 2 mps 734 mmHg 79%
    13:00 +31°C° 1.2 mm 1 mps 733 mmHg 82%
    14:00 +30°C° 0.9 mm 1 mps 733 mmHg 85%
    15:00 +30°C° 0.9 mm 1 mps 732 mmHg 87%
    16:00 +30°C° 0.9 mm 1 mps 732 mmHg 89%
    17:00 +29°C° 0.3 mm 1 mps 732 mmHg 92%
    18:00 +27°C° 0.3 mm 1 mps 733 mmHg 95%
    19:00 +26°C° 0.3 mm 1 mps 733 mmHg 98%
    20:00 +26°C° 0.3 mm 1 mps 734 mmHg 98%
    21:00 +24°C° 0.3 mm 0 mps 734 mmHg 98%
    22:00 +24°C° 0.3 mm 0 mps 735 mmHg 98%
    23:00 +23°C° 1.3 mm 0 mps 735 mmHg 98%
    Show more